Weather Roundup
Issued by NWS Chicago, IL

Home | Current Version | Previous Version | Graphics & Text | Print | Product List | Glossary On
Versions: 1 2 3 4 5 6 7 8 9 10 11 12 13 14 15 16 17 18 19 20 21 22 23 24 25 26 27 28 29 30 31 32 33 34 35 36 37 38 39 40 41 42 43 44 45 46 47 48 49 50
000
NZUS59 KLOT 201509
HRRLOT

CHICAGO AREA WEATHER ROUNDUP
NATIONAL WEATHER SERVICE CHICAGO/ROMEOVILLE IL
1000 AM CDT FRI OCT 20 2017

NOTE: "FAIR" INDICATES FEW OR NO CLOUDS BELOW 12,000 FEET WITH NO
SIGNIFICANT WEATHER AND/OR OBSTRUCTIONS TO VISIBILITY.

* THESE STATIONS ARE NOT UNDER NWS QUALITY CONTROL. THEY ALSO MAY NOT
  REPORT WEATHER SUCH AS PRECIPITATION OR FOG.

ILZ005-006-012>014-019>023-201600-
NORTHEAST ILLINOIS

CITY           SKY/WX    TMP DP  RH WIND       PRES   REMARKS
OHARE          MOSUNNY   65  50  58 SW9       30.17S
MIDWAY         MOSUNNY   66  51  58 SW10      30.18F
AURORA         SUNNY     62  52  69 S8        30.18F
LANSING*       SUNNY     64  55  71 S8        30.20F
JOLIET*        SUNNY     65  54  66 S7        30.19S
WAUKEGAN       SUNNY     64  52  64 SW9       30.15S
DUPAGE AIRPORT SUNNY     63  53  70 S8        30.17F
WHEELING       SUNNY     66  53  63 SW7       30.18F
KANKAKEE*      SUNNY     64  53  66 SW9       30.22S
MORRIS*        SUNNY     65  52  64 S10       30.18S
LEWIS AIRPORT* SUNNY     64  52  64 SW9       30.19S
NORTHERLY ISL    N/A     65  48  54 S7          N/A
$$

WIZ051-052-058>065-066-070>072-201600-
SOUTHEAST WISCONSIN

CITY           SKY/WX    TMP DP  RH WIND       PRES   REMARKS
MILWAUKEE      MOSUNNY   65  50  58 SW14      30.14F
KENOSHA*       SUNNY     65  51  60 SW9       30.15F
RACINE*        SUNNY     67  52  58 SW6       30.16S
BURLINGTON     SUNNY     63  53  69 SW12      30.14F
WAUKESHA       SUNNY     61  48  63 S8        30.15S
WEST BEND      SUNNY     64  50  59 S7        30.11F
$$

INZ001>003-010>013-019-020-201600-
NORTHWEST INDIANA

CITY           SKY/WX    TMP DP  RH WIND       PRES   REMARKS
GARY*          MOSUNNY   66  50  55 SW10      30.20F
MICHIGAN CITY* NOT AVBL
RENSSELAER*    NOT AVBL
VALPARAISO     SUNNY     65  53  65 S9        30.23S
$$

LMZ740>746-201600-
SOUTHERN LAKE MICHIGAN

STATION/POSITION TIME  SKY/WX   TEMP WIND        PRES    VSBY
                                AIR  DIR/SP/G
                 (UTC)          (F)  (DEG/KT/KT) (MB)    (MI)
HARRISON CRIB    1410            63  200/ 17/ 18   N/A
BURNHAM HARBOR   1430            63  280/  4/  8   N/A
CALUMET HARBOR   1412            61  190/  6/ 10 1021.6
BURNS HARBOR     1406            60  180/ 12/ 16 1023.0
MICHIGAN CITY    1410            61  160/ 11/ 16   N/A
$$

ABBREVIATIONS USED IN REMARKS
   TC - TEMPERATURE IN CELSIUS
  WCI - WIND CHILL INDEX
   HX - HEAT INDEX
  VSB - VISIBILITY
$$




USA.gov is the U.S. government's official web portal to all federal, state and local government web resources and services.